Location: Lafig�re
(44.4503°N, 4.0357°E)
Time: 05:41:48
(UTC+00:00)

Vanguard 2 - Pass Details

Date: 27 January 2021
Orbit: 552 x 2938 km, 32.9° (Epoch: 01 March)

Event Time Altitude Azimuth Distance (km) Brightness Sun altitude
Rises 19:41:39 0° 249° (WSW) 2,931 11.4 -31.3°
Reaches altitude 10° 19:45:23 10° 215° (SW) 2,293 10.3 -31.9°
Maximum altitude 19:47:13 12° 195° (SSW) 2,332 10.1 -32.2°
Enters shadow 19:47:19 12° 194° (SSW) 2,341 10.0 -32.3°
